This is the latest recevied weather packets stored in our database for station/object K7LDN-13. If no packets are shown the sender has not sent any weather packets the latest 10 day(s).
| Time | Temp. | Humidity | Pressure | Rain* | Wind** | Luminosity | Snow |
|---|---|---|---|---|---|---|---|
| 1777938626 | 20.56° C | 30% | 1010.2 hPa | 0 mm | - | 170 W/m² | - |
| 1777938323 | 20.56° C | 30% | 1010.1 hPa | 0 mm | - | 208 W/m² | - |
| 1777938020 | 21.11° C | 32% | 1010 hPa | 0 mm | - | 327 W/m² | - |
| 1777937715 | 20° C | 33% | 1010.2 hPa | 0 mm | - | 322 W/m² | - |
| 1777937412 | 20° C | 32% | 1010.3 hPa | 0 mm | - | 210 W/m² | - |
| 1777937109 | 20° C | 32% | 1010.2 hPa | 0 mm | - | 264 W/m² | - |
| 1777936807 | 20° C | 33% | 1010.6 hPa | 0 mm | - | 159 W/m² | - |
| 1777936503 | 20° C | 33% | 1010.4 hPa | 0 mm | - | 215 W/m² | - |
| 1777936199 | 20° C | 33% | 1010.3 hPa | 0 mm | - | 202 W/m² | - |
| 1777935896 | 20° C | 33% | 1010.3 hPa | 0 mm | - | 222 W/m² | - |
| 1777935595 | 19.44° C | 32% | 1010.3 hPa | 0 mm | - | 171 W/m² | - |
| 1777935291 | 20° C | 32% | 1010.4 hPa | 0 mm | - | 166 W/m² | - |
| 1777934988 | 21.11° C | 31% | 1010.2 hPa | 0 mm | - | 207 W/m² | - |
| 1777934685 | 22.22° C | 28% | 1010.3 hPa | 0 mm | - | 440 W/m² | - |
| 1777934382 | 21.67° C | 29% | 1010.2 hPa | 0 mm | - | 276 W/m² | - |
| 1777934078 | 21.67° C | 28% | 1010.3 hPa | 0 mm | - | 267 W/m² | - |
| 1777933773 | 21.67° C | 27% | 1010.1 hPa | 0 mm | - | 583 W/m² | - |
| 1777933472 | 21.67° C | 28% | 1010.2 hPa | 0 mm | - | 381 W/m² | - |
| 1777933169 | 21.11° C | 29% | 1010.2 hPa | 0 mm | - | 429 W/m² | - |
| 1777932866 | 21.11° C | 31% | 1010.1 hPa | 0 mm | - | 536 W/m² | - |
| 1777932563 | 20.56° C | 31% | 1010.2 hPa | 0 mm | - | 385 W/m² | - |
| 1777932259 | 20.56° C | 31% | 1010.3 hPa | 0 mm | - | 329 W/m² | - |
| 1777931956 | 20.56° C | 33% | 1010.3 hPa | 0 mm | - | 314 W/m² | - |
| 1777931653 | 20° C | 34% | 1010.2 hPa | 0 mm | - | 335 W/m² | - |
| 1777931349 | 20° C | 34% | 1010.6 hPa | 0 mm | - | 409 W/m² | - |
* Rain latest hour (hover to see other rain measurements)
** Current wind speed in m/s (hover to see current wind gust speed)